Regional Weather Roundup
Issued by NWS

Home | Current Version | Previous Version | Graphics & Text | Print | Product List | Glossary On
Versions: 1 2 3 4 5 6 7 8 9 10 11 12 13 14 15 16 17 18 19 20 21 22 23 24 25 26 27 28 29 30 31 32 33 34 35 36 37 38 39 40 41 42 43 44 45 46 47 48
000
ASUS45 KBOU 200710
RWRCO

WEATHER ROUNDUP FOR COLORADO
NATIONAL WEATHER SERVICE PUEBLO CO
100 AM MDT FRI APR 20 2018

NOTE: "FAIR" INDICATES FEW OR NO CLOUDS BELOW 12000 FEET WITH NO
SIGNIFICANT WEATHER AND/OR OBSTRUCTIONS TO VISIBILITY.

COZ001>005-013-030-031-200800-
...NORTHWEST COLORADO...

CITY           SKY/WX    TMP DP  RH WIND       PRES   REMARKS
CRAIG          CLOUDY    50  34  54 S10       29.84S
HAYDEN         CLOUDY    49  31  49 E6        29.86F
MEEKER         LGT RAIN  49  36  61 E16       29.83S
RABBIT EARS PA NOT AVBL
STEAMBOAT SPGS FAIR      48  28  45 CALM      29.86F
WALDEN         FAIR      37  18  44 E3        29.94F
$$

COZ006>008-011-200800-
...WEST CENTRAL VALLEYS...

CITY           SKY/WX    TMP DP  RH WIND       PRES   REMARKS
GRAND JUNCTION CLOUDY    62  25  24 SE23G36   29.69R
MONTROSE       LGT RAIN  51  32  48 W7G32     29.85R
EAGLE          CLOUDY    54  28  36 S13       29.88R
RIFLE          CLOUDY    56  30  37 S5        29.77R
DELTA          NOT AVBL
NUCLA          CLOUDY    54   5  14 SW17G26   29.85R
$$

COZ017>023-064>068-200800-
...SOUTHWEST COLORADO...

CITY           SKY/WX    TMP DP  RH WIND       PRES   REMARKS
DURANGO        CLOUDY    52  33  48 S21G35    29.84R
CORTEZ         CLOUDY    50   7  17 SW17      29.83F
PAGOSA SPRINGS MOCLDY    51  21  30 SE12G23   29.90F
TELLURIDE      CLOUDY    43  26  50 W13G25    29.90F
WOLF CREEK PAS NOT AVBL
$$

COZ009-010-012-014-032>034-037-058>063-200800-
...CENTRAL COLORADO...

CITY           SKY/WX    TMP DP  RH WIND       PRES   REMARKS
ASPEN          CLOUDY    46  30  53 S17       29.91S
BUENA VISTA    MOCLDY    48  17  29 S12G17    29.97F
COPPER MTN     NOT AVBL
BERTHOUD PASS  FAIR      27  16  63 SE43G55   30.09F WCI   8
COTTONWOOD PAS CLOUDY    45  23  42 SE24G31   30.02F
GUNNISON       CLOUDY    43  33  68 S13       29.94F
KREMMLING      CLOUDY    48  23  37 CALM      29.91F
LEADVILLE      LGT SNOW  36  24  62 S14G31    30.01F
MONARCH PASS   LGT SNOW  28  21  74 S16G33    30.19F WCI  17
SALIDA         NOT AVBL
SUNLIGHT       CLOUDY    34  23  64 SE7G21    30.02S WCI  28
WILKERSON PASS PTCLDY    32  14  47 SW9G16    30.13F WCI  24
$$

COZ069>075-200800-
...SAN LUIS VALLEY/SANGRE DE CRISTO MOUNTAINS...

CITY           SKY/WX    TMP DP  RH WIND       PRES   REMARKS
ALAMOSA        MOCLDY    44  22  41 S15       29.95F
DEL NORTE      FAIR      45  22  39 SE16      29.94F
LA VETA PASS   PTCLDY    36  21  55 SE10G20   30.18F
SAGUACHE       NOT AVBL
$$

COZ035-036-038>040-200800-
...NORTHERN COLORADO FRONT RANGE...

CITY           SKY/WX    TMP DP  RH WIND       PRES   REMARKS
DENVER INTL AP PTCLDY    48  21  34 S14G26    29.94F
DMNS CITY PARK NOT AVBL
AURORA         PTCLDY    50  21  32 S18G28    29.91S
FRONT RANGE AP FAIR      50  20  31 SE36G45   29.93F
ERIE MUNI ARPT FAIR      44  23  44 NW3       29.97S
BOULDER MUN AP FAIR      46  23  39 N13       29.93S
CENTENNIAL     MOCLDY    48  23  37 S28G37    29.92R
BROOMFIELD     PTCLDY    46  21  36 NW17      29.93F
LOVELAND       MOCLDY    42  25  50 N10       29.97S
LONGMONT       FAIR      48  24  39 N18       29.95F
$$

COZ041-046-047-076>085-087-088-200800-
...PIKES PEAK/PALMER DIVIDE AND SOUTHERN FOOTHILLS...

CITY           SKY/WX    TMP DP  RH WIND       PRES   REMARKS
COLO. SPRINGS  MOCLDY    45  22  40 E13       30.00F
A. F. ACADEMY  PTCLDY    45  20  37 SE16      29.99F
SCHRIEVER AFB  NOT AVBL
CHEYENNE MTN   NOT AVBL
ELLICOTT         N/A    N/A N/A N/A S29G39    29.98F
FALCON         FAIR      37  19  47 SE8       30.03F
FORT CARSON    PTCLDY    50  24  36 NW3       29.97F
LIMON          PTCLDY    42  23  46 SE24      30.04F
MONUMENT HILL  PTCLDY    39  21  48 SE16G26   30.01S
CANON CITY     FAIR      55  27  33 N10G16    29.90F
WALSENBURG     FAIR      55  25  30 S20G30    29.96F
TRINIDAD       MOCLDY    53  21  28 SW25G39   30.01R
$$

COZ042>045-048>051-090-091-200800-
...NORTHEAST COLORADO...

CITY           SKY/WX    TMP DP  RH WIND       PRES   REMARKS
GREELEY ARPT   NOT AVBL
AKRON          MOCLDY    41  26  55 SE25G36   30.06S
BURLINGTON     CLOUDY    41  26  55 SE25G36   30.13S
WRAY           FAIR      43  27  52 SE20G25   30.15S
YUMA           NOT AVBL
STERLING       NOT AVBL
HOLYOKE        FAIR      43  28  56 SE16G24   30.16S
FORT MORGAN    FAIR      44  22  41 E18G29    30.03F
$$

COZ086-089-092>099-200800-
...SOUTHEAST COLORADO...

CITY           SKY/WX    TMP DP  RH WIND       PRES   REMARKS
PUEBLO         MOCLDY    59  26  28 SE15      29.93F
LA JUNTA       CLOUDY    57  21  24 SE18G35   30.03S
LAMAR          CLOUDY    47  24  40 E13       30.09R
SPRINGFIELD      N/A     47  25  42 S29G36    30.11S
$$





USA.gov is the U.S. government's official web portal to all federal, state and local government web resources and services.